weekstart,num_boards
2009-11-08,3
2009-11-15,3
2009-11-22,1
2009-11-29,1
2009-12-06,1
2009-12-13,3
2009-12-27,2
2010-01-03,2
2010-01-10,3
2010-01-17,1
2010-01-24,2
2010-01-31,3
2010-02-07,2
2010-02-14,1
2010-02-21,3
2010-02-28,1
2010-03-07,3
2010-03-14,2
2010-03-21,3
2010-03-28,4
2010-04-04,4
2010-04-11,3
2010-04-18,3
2010-04-25,1
2010-05-02,3
2010-05-09,3
2010-05-16,6
2010-05-23,5
2010-05-30,5
2010-06-06,6
2010-06-13,4
2010-06-20,6
2010-06-27,9
2010-07-04,7
2010-07-11,5
2010-07-18,6
2010-07-25,13
2010-08-01,7
2010-08-08,5
2010-08-15,8
2010-08-22,7
2010-08-29,11
2010-09-05,9
2010-09-12,9
2010-09-19,5
2010-09-26,9
2010-10-03,10
2010-10-10,7
2010-10-17,7
2010-10-24,3
2010-10-31,6
2010-11-07,7
2010-11-14,8
2010-11-21,6
2010-11-28,8
2010-12-05,5
2010-12-12,4
2010-12-19,7
2010-12-26,8
2011-01-02,7
2011-01-09,7
2011-01-16,10
2011-01-23,12
2011-01-30,12
2011-02-06,8
2011-02-13,10
2011-02-20,10
2011-02-27,15
2011-03-06,13
2011-03-13,12
2011-03-20,11
2011-03-27,15
2011-04-03,15
2011-04-10,9
2011-04-17,14
2011-04-24,8
2011-05-01,9
2011-05-08,19
2011-05-15,12
2011-05-22,21
2011-05-29,17
2011-06-05,23
2011-06-12,24
2011-06-19,17
2011-06-26,27
2011-07-03,25
2011-07-10,32
2011-07-17,28
2011-07-24,21
2011-07-31,25
2011-08-07,31
2011-08-14,34
2011-08-21,29
2011-08-28,27
2011-09-04,25
2011-09-11,34
2011-09-18,36
2011-09-25,35
2011-10-02,25
2011-10-09,42
2011-10-16,35
2011-10-23,33
2011-10-30,35
2011-11-06,43
2011-11-13,28
2011-11-20,35
2011-11-27,44
2011-12-04,57
2011-12-11,44
2011-12-18,32
2011-12-25,32
2012-01-01,44
2012-01-08,49
2012-01-15,49
2012-01-22,47
2012-01-29,48
2012-02-05,59
2012-02-12,53
2012-02-19,55
2012-02-26,57
2012-03-04,50
2012-03-11,41
2012-03-18,54
2012-03-25,47
2012-04-01,37
2012-04-08,49
2012-04-15,38
2012-04-22,42
2012-04-29,32
2012-05-06,44
2012-05-13,37
2012-05-20,39
2012-05-27,34
2012-06-03,41
2012-06-10,37
2012-06-17,55
2012-06-24,44
2012-07-01,43
2012-07-08,48
2012-07-15,56
2012-07-22,43
2012-07-29,43
2012-08-05,50
2012-08-12,44
2012-08-19,37
2012-08-26,48
2012-09-02,43
2012-09-09,39
2012-09-16,39
2012-09-23,50
2012-09-30,44
2012-10-07,44
2012-10-14,49
2012-10-21,41
2012-10-28,33
2012-11-04,39
2012-11-11,50
2012-11-18,36
2012-11-25,40
2012-12-02,38
2012-12-09,38
2012-12-16,43
2012-12-23,40
2012-12-30,39
2013-01-06,54
2013-01-13,55
2013-01-20,67
2013-01-27,52
2013-02-03,49
2013-02-10,52
2013-02-17,56
2013-02-24,51
2013-03-03,52
2013-03-10,58
2013-03-17,60
2013-03-24,47
2013-03-31,52
2013-04-07,54
2013-04-14,51
2013-04-21,39
2013-04-28,48
2013-05-05,39
2013-05-12,36
2013-05-19,45
2013-05-26,40
2013-06-02,49
2013-06-09,52
2013-06-16,43
2013-06-23,57
2013-06-30,44
2013-07-07,53
2013-07-14,55
2013-07-21,40
2013-07-28,48
2013-08-04,44
2013-08-11,46
2013-08-18,35
2013-08-25,41
2013-09-01,41
2013-09-08,47
2013-09-15,43
2013-09-22,36
2013-09-29,35
2013-10-06,49
2013-10-13,49
2013-10-20,46
2013-10-27,47
2013-11-03,58
2013-11-10,52
2013-11-17,61
2013-11-24,52
2013-12-01,48
2013-12-08,58
2013-12-15,48
2013-12-22,34
2013-12-29,48
2014-01-05,55
2014-01-12,47
2014-01-19,61
2014-01-26,43
2014-02-02,62
2014-02-09,60
2014-02-16,69
2014-02-23,64
2014-03-02,58
2014-03-09,63
2014-03-16,63
2014-03-23,68
2014-03-30,58
2014-04-06,62
2014-04-13,42
2014-04-20,52
2014-04-27,61
2014-05-04,49
2014-05-11,54
2014-05-18,59
2014-05-25,58
2014-06-01,61
2014-06-08,62
2014-06-15,56
2014-06-22,60
2014-06-29,57
2014-07-06,55
2014-07-13,67
2014-07-20,55
2014-07-27,49
2014-08-03,56
2014-08-10,55
2014-08-17,60
2014-08-24,60
2014-08-31,67
2014-09-07,60
2014-09-14,55
2014-09-21,56
2014-09-28,57
2014-10-05,51
2014-10-12,52
2014-10-19,61
2014-10-26,64
2014-11-02,59
2014-11-09,62
2014-11-16,62
2014-11-23,60
2014-11-30,59
2014-12-07,57
2014-12-14,76
2014-12-21,61
2014-12-28,46
2015-01-04,62
2015-01-11,69
2015-01-18,46
2015-01-25,51
2015-02-01,58
2015-02-08,59
2015-02-15,51
2015-02-22,64
2015-03-01,58
2015-03-08,57
2015-03-15,51
2015-03-22,68
2015-03-29,62
2015-04-05,67
2015-04-12,65
2015-04-19,62
2015-04-26,54
2015-05-03,53
2015-05-10,58
2015-05-17,64
2015-05-24,62
2015-05-31,53
2015-06-07,50
2015-06-14,75
2015-06-21,60
2015-06-28,65
2015-07-05,77
2015-07-12,81
2015-07-19,73
2015-07-26,79
2015-08-02,82
